Left ArrowRight Arrow

33.76696, -118.18923

Hourly Observations for May 20, 2024

Temp ( °F °C ) Dew Point ( °F °C ) Humidity (%) Winds ( mph kmh ) Pressure ( in mb ) Visibility ( mi km ) Precip ( " mm )
12:53 am 00:53 Cloudy 61 16.1 53 11.7 75 75 NW 6 9 29.98 1015 10 16 0.00 0.00
1:53 am 01:53 Cloudy 61 16.1 53 11.7 75 75 NNW 3 6 29.97 1015 10 16 0.00 0.00
2:53 am 02:53 Cloudy 61 16.1 53 11.7 75 75 NNW 3 6 29.96 1014 10 16 0.00 0.00
3:53 am 03:53 Cloudy 61 16.1 53 11.7 75 75 SE 3 6 29.96 1015 10 16 0.00 0.00
4:53 am 04:53 Cloudy 61 16.1 51 10.6 70 70 S 5 7 29.96 1015 10 16 0.00 0.00
5:53 am 05:53 Cloudy 61 16.1 50 10 67 67 S 3 6 29.97 1015 10 16 0.00 0.00
6:53 am 06:53 Cloudy 61 16.1 51 10.6 70 70 S 5 7 29.99 1016 10 16 0.00 0.00
7:53 am 07:53 Cloudy 62 16.7 51 10.6 67 67 VRB 5 7 30.01 1016 10 16 0.00 0.00
8:11 am 08:11 Cloudy 62 16.7 51 10.6 67 67 VRB 3 6 30.01 1016 10 16 0.00 0.00
8:53 am 08:53 Cloudy 63 17.2 51 10.6 65 65 ESE 6 9 30.01 1016 10 16 0.00 0.00
9:08 am 09:08 Cloudy 63 17.2 51 10.6 65 65 SE 7 11 30.02 1017 10 16 0.00 0.00
9:53 am 09:53 Cloudy 63 17.2 52 11.1 67 67 SSE 3 6 30.01 1016 10 16 0.00 0.00
10:53 am 10:53 Cloudy 64 17.8 52 11.1 65 65 Calm 30.01 1016 10 16 0.00 0.00
11:31 am 11:31 Cloudy 65 18.3 52 11.1 63 63 VRB 6 9 30.01 1016 10 16 0.00 0.00
11:53 am 11:53 Cloudy 66 18.9 52 11.1 61 61 S 7 11 30.01 1016 10 16 0.00 0.00
12:53 pm 12:53 Cloudy 69 20.6 52 11.1 54 54 SW 10 17 30.00 1016 10 16 0.00 0.00
1:53 pm 13:53 Partly Cloudy 70 21.1 51 10.6 51 51 S 9 15 29.98 1015 10 16 0.00 0.00
2:53 pm 14:53 Mostly Cloudy 70 21.1 51 10.6 51 51 SW 9 15 29.97 1015 10 16 0.00 0.00
3:53 pm 15:53 Cloudy 68 20 50 10 53 53 S 9 15 29.95 1014 10 16 0.00 0.00
4:53 pm 16:53 Cloudy 69 20.6 53 11.7 57 57 WNW 14 22 29.94 1014 10 16 0.00 0.00
5:16 pm 17:16 Partly Cloudy 69 20.6 53 11.7 57 57 WNW 13 20 29.94 1014 10 16 0.00 0.00
5:53 pm 17:53 Sunny 66 18.9 52 11.1 61 61 WNW 10 17 29.93 1014 10 16 0.00 0.00
6:53 pm 18:53 Sunny 65 18.3 52 11.1 63 63 WNW 12 19 29.93 1013 10 16 0.00 0.00
7:53 pm 19:53 Clear 62 16.7 51 10.6 67 67 WNW 10 17 29.94 1014 10 16 0.00 0.00
8:53 pm 20:53 Clear 61 16.1 50 10 67 67 WNW 8 13 29.95 1014 10 16 0.00 0.00
9:53 pm 21:53 Clear 61 16.1 50 10 67 67 W 5 7 29.96 1015 10 16 0.00 0.00
10:53 pm 22:53 Mostly Clear 60 15.6 51 10.6 72 72 WNW 5 7 29.97 1015 10 16 0.00 0.00
11:42 pm 23:42 Cloudy 60 15.6 51 10.6 72 72 Calm 29.97 1015 10 16 0.00 0.00
11:53 pm 23:53 Cloudy 60 15.6 51 10.6 72 72 Calm 29.97 1015 10 16 0.00 0.00

Powered by Vaisala Xweather